Home   Weather   Paris   Past weeks
Flag for USA

Past Weather in Paris, New York, USA — Yesterday and Last 2 Weeks

Now
23 °F

Clear.


Feels Like: 14 °F
Forecast: 32 / 20 °F
Wind: 8 mph from Northwest

Location: Griffiss Air Force Base / Rome

Current Time: Dec 11, 2019 at 3:21:39 am

Latest Report: Dec 11, 2019 at 2:53 am


Visibility: 10 mi

Pressure: 30.24 "Hg

Humidity: 74%

Dew Point: 16 °F

Location of ParisLocation

Past Weather in Paris — Graph

°F

Paris Temperature Yesterday

Maximum temperature yesterday: 48 °F (at 9:53 am)
Minimum temperature yesterday: 27 °F (at 11:53 pm)
Average temperature yesterday: 39 °F

High & Low Weather Summary for the Past Weeks

 TemperatureHumidityPressure
High58 °F (Nov 26, 12:53 pm)100% (Nov 26, 3:53 am)30.51 "Hg (Nov 26, 3:53 am)
Low2 °F (Dec 8, 1:53 am)54% (Nov 30, 2:53 pm)29.42 "Hg (Dec 4, 1:23 pm)
Average30 °F89%29.91 "Hg
* Reported Nov 26 1:53 am — Dec 11 1:53 am, Paris. Weather by CustomWeather, © 2019

Note: Actual official high and low records may vary slightly from our data, if they occured in-between our weather recording intervals... More about our weather records

Paris Weather History for the Previous 24 Hours

Scroll right to see more
 ConditionsComfort  
Time TempWeatherWind HumidityBarometerVisibility
1:53 am
Wed, Dec 11
24 °FPassing clouds.13 mph75%30.21 "Hg10 mi
12:53 am26 °FMostly cloudy.10 mph71%30.20 "Hg10 mi
11:53 pm
Tue, Dec 10
27 °FOvercast.9 mph72%30.19 "Hg10 mi
10:53 pm28 °FMostly cloudy.15 mph72%30.17 "Hg10 mi
9:53 pm30 °FMostly cloudy.18 mph69%30.14 "Hg10 mi
8:53 pm32 °FOvercast.10 mph75%30.10 "Hg10 mi
8:15 pm32 °FMostly cloudy.10 mph88%30.06 "Hg10 mi
6:53 pm33 °FOvercast.12 mph88%30.04 "Hg10 mi
5:53 pm34 °FMostly cloudy.14 mph88%29.98 "Hg10 mi
5:24 pm35 °FMostly cloudy.10 mph85%29.97 "Hg10 mi
5:09 pm35 °FOvercast.13 mph85%29.95 "Hg10 mi
4:53 pm35 °FOvercast.12 mph85%29.93 "Hg10 mi
3:53 pm36 °FOvercast.9 mph82%29.92 "Hg10 mi
2:53 pm37 °FOvercast.9 mph86%29.85 "Hg10 mi
1:53 pm37 °FOvercast.8 mph86%29.81 "Hg10 mi
1:13 pm37 °FMostly cloudy.13 mph82%29.81 "Hg10 mi
12:53 pm38 °FOvercast.17 mph83%29.81 "Hg10 mi
12:29 pm38 °FOvercast.16 mph86%29.79 "Hg10 mi
11:53 am40 °FLight rain. More clouds than sun.16 mph86%29.79 "Hg10 mi
11:27 am41 °FMostly cloudy.17 mph89%29.78 "Hg10 mi
10:53 am42 °FMore clouds than sun.18 mph79%29.74 "Hg10 mi
9:53 am48 °FOvercast.12 mph74%29.70 "Hg10 mi
8:53 am47 °FOvercast.5 mph83%29.69 "Hg10 mi
7:53 am47 °FOvercast.12 mph83%29.67 "Hg10 mi
6:53 am43 °FOvercast.3 mph100%29.66 "Hg7 mi
6:08 am42 °FMostly cloudy.3 mph100%29.64 "Hg9 mi
5:36 am42 °FFog.6 mph100%29.63 "Hg4 mi
5:16 am42 °FFog.3 mph100%29.63 "Hg3 mi
4:53 am43 °FMostly cloudy.No wind100%29.62 "Hg10 mi
4:28 am45 °FLight rain. Fog.No wind100%29.61 "Hg6 mi
3:53 am45 °FLight rain. Overcast.No wind100%29.60 "Hg10 mi
Weather by CustomWeather, © 2019

See weather overview

Advertising